Погода в Давыдовке

Россия / Воронежская область     51°09′35″N   39°25′20″E
темп.,
°C
ветер,
м/с
пор.,
м/с
влажн.,
%
обл.,
%
осадки,
мм/ч
давл.,
гПа
погр.,
м
8 мая, сб
сб800:00+8ююв498083 0.0 1016188
03:00+7юв51182100 0.0 1016211
06:00+8ююв51378100 0.0 1014347
09:00+13ююв71363100 0.0 1013627
12:00+15ююв71163100 0.0 10111027
15:00+14ю71281100 1.1 1009761
18:00+14ююз51188100 2.3 1007478
21:00+12юз5993100 5.0 1007471
9 мая, вс
вс900:00+10юз5996100 2.9 1008467
03:00+6з71291100 3.8 1010597
06:00+5зсз61190100 0.3 1012874
09:00+6сз71087100 0.5 10131041
12:00+8сз81071100 0.1 10151240
15:00+9сз71065100 0.1 10171511
18:00+9ссз61069100 0.1 10181279
21:00+7ссз61274100 0.1 1021570
10 мая, пн
пн1000:00+5сз5128032 0.0 1022411
03:00+5ссз61481100 0.0 1022426
06:00+6ссз6157777 0.0 1024613
09:00+10с916595 0.0 10231480
12:00+12ссв111547100 0.0 10221539
15:00+11ссв91554100 0.0 10221351
18:00+9ссв91667100 0.2 1022946
21:00+10ссв101973100 0.6 1020767
11 мая, вт
вт1100:00+10ссв91777100 0.3 1020803
03:00+9ссв81687100 1.6 1019542
06:00+9св81893100 1.6 1019708
09:00+11св81391100 5.1 1021960
12:00+12в797262 0.1 10221108
15:00+15в710535 0.1 10231653
18:00+14в476899 0.1 1023474
21:00+9всв3788100 0.1 1023138
12 мая, ср
ср1200:00+9в3690100 0.1 1023166
03:00+8всв3588100 0.1 1022109
06:00+9в35890 0.0 1022142
09:00+14в45695 0.0 1022645
12:00+17вюв355281 0.0 10211649
15:00+19вюв3548100 0.0 10201894
18:00+18в345998 0.0 1019294
21:00+13в3690100 0.0 101899